Kuchera_Ratio
10.7 11.3 10.8 10.4 10.6 11.0 10.7 9.8 7.7 7.5 6.8 6.2 5.3 5.2 5.2 6.0 6.2 6.1 6.9 7.1 6.1 4.7
10.8 10.6 11.7 10.8 9.6 10.4 9.3 7.7 7.5 7.8 8.6 8.0 7.4 7.0 7.0 7.8 8.0 6.9 7.0 7.4 7.0 6.9
11.7 11.1 10.7 10.5 12.1 11.4 10.1 9.6 9.8 9.8 9.6 9.5 9.0 8.6 8.7 9.3 8.4 8.9 8.4 6.9 7.9 7.5
12.2 11.7 11.3 12.1 12.0 11.5 11.1 11.2 11.6 10.9 11.0 10.9 10.7 9.7 10.3 10.4 10.0 10.4 10.2 9.0 9.2 8.7
12.5 12.4 12.7 12.7 12.4 12.0 12.6 11.9 12.1 11.8 12.1 11.9 11.5 10.9 11.5 12.0 10.5 11.1 11.8 10.7 10.2 10.1
13.4 13.8 14.0 13.5 12.7 12.3 12.7 12.7 12.4 12.2 12.7 12.5 12.1 12.2 11.8 11.9 12.0 11.8 11.5 11.0 11.1 11.0
14.1 13.6 13.6 13.3 13.1 12.9 12.7 13.0 13.0 12.7 12.7 12.5 12.5 11.9 12.0 11.8 12.2 12.2 11.6 10.9 10.7 10.5
13.9 13.5 13.5 13.4 13.2 13.1 13.2 13.0 13.1 13.2 13.0 12.9 12.7 11.9 12.6 12.1 12.6 12.7 12.5 11.8 10.9 10.1
14.1 14.1 14.0 13.9 13.8 13.7 13.8 13.9 13.8 13.8 13.6 13.5 12.2 9.3 7.2 7.5 11.5 12.2 12.3 12.8 11.9 10.6
14.5 14.8 14.7 14.4 14.5 14.7 14.8 14.4 14.5 14.1 13.7 13.8 13.0 8.5 6.7 6.2 10.0 12.0 12.1 11.6 10.6 10.8
15.4 15.6 15.3 15.3 15.5 15.4 14.7 14.8 14.5 14.0 13.4 13.4 12.5 7.7 6.2 5.8 9.5 10.9 11.1 11.0 10.0 9.6
16.1 16.7 16.3 16.7 16.1 15.5 15.2 14.7 14.2 13.4 13.5 13.4 12.7 8.0 6.6 6.9 10.9 11.5 10.9 9.4 8.8 9.1
16.5 16.9 17.5 16.7 16.4 14.8 14.5 14.4 13.2 13.3 12.9 11.9 13.3 10.0 7.4 7.8 10.8 11.6 10.6 9.0 8.8 4.8
16.9 17.1 16.7 16.0 15.2 14.7 14.2 14.1 14.1 13.9 13.6 13.4 13.0 12.7 7.6 6.0 9.3 10.0 9.2 9.5 10.2 9.1